105  
ASUS44 KSHV 230810  
RWRSHV  
 
THE FOUR STATE AREA WEATHER ROUNDUP  
NATIONAL WEATHER SERVICE SHREVEPORT LA  
300 AM CDT FRI OCT 23 2020  
 
NOTE: "FAIR" INDICATES FEW OR NO CLOUDS BELOW 12000 FEET  
WITH NO SIGNIFICANT WEATHER AND/OR S TO VISIBILITY
.  
 
!LAZ001-LAZ014-TXZ097-230900  
SHREVEPORT...MONROE...TEXARKANA RADIOS  
 
CITY SKY/WX TMP DP RH WIND PRES REMARKS
 
SHREVEPORT CLEAR 71 67 87 CALM 29.96R  
MONROE CLEAR 72 70 93 S3 29.99S  
NATCHITOCHES PTCLDY 70 70 99 CALM 29.98R  
TEXARKANA CLEAR 73 67 81 S8 29.96R  

 
 
!LAZ001-LAZ014-TXZ097-230900  
OTHER LOCATIONS...  
 
CITY SKY/WX TMP DP RH WIND PRES REMARKS
 
DOWNTOWN SHV CLEAR 72 69 90 SE5 29.96R  
BOSSIER CITY CLEAR 69 67 96 SE3 29.96R  
RUSTON PTCLDY 70 67 90 S3 30.02S  
LITTLE ROCK PTCLDY 67 65 93 S8 29.96F  
EL DORADO CLEAR 69 69 100 SE6 29.98R  
JACKSON CLEAR 66 64 93 SE3 30.01S  
NEW ORLEANS PTCLDY 76 72 87 E6 29.96F  
HOUSTON MOCLDY 74 73 97 SE3 29.92S  
LUFKIN CLOUDY 72 71 97 S6 29.96R FOG  
TYLER CLEAR 68 66 93 S5 29.96R  
DAL FT WORTH MOCLDY 74 68 81 S12 29.91F  

 
 
!TXZ136-TXZ165-230900  
TYLER...LUFKIN RADIOS  
 
CITY SKY/WX TMP DP RH WIND PRES REMARKS
 
TYLER CLEAR 68 66 93 S5 29.96R  
GILMER SUNNY 68 66 92 CALM 29.98R  
LONGVIEW CLEAR 69 66 90 CALM 29.96R  
LUFKIN CLOUDY 72 71 97 S6 29.96R FOG  

 
 
!TXZ136-TXZ165-230900  
OTHER LOCATIONS...  
 
CITY SKY/WX TMP DP RH WIND PRES REMARKS
 
NACOGDOCHES CLOUDY 71 70 96 SE3 29.97R FOG  
BEAUMONT CLOUDY 76 75 97 E9 29.92F  
HOUSTON MOCLDY 74 73 97 SE3 29.92S  
COLLEGE STN CLOUDY 74 72 93 S6 29.93S  
AUSTIN CLOUDY 75 72 90 S5 29.92F  
DAL FT WORTH MOCLDY 74 68 81 S12 29.91F  
TEXARKANA CLEAR 73 67 81 S8 29.96R  
SHREVEPORT CLEAR 71 67 87 CALM 29.96R  
FORT POLK MOCLDY 72 71 96 E7 29.98S  
LAKE CHARLES CLOUDY 73 72 96 E6 29.95S  

 
 
 
CLICK HERE TO GO TO PREVIOUS BULLETINS.

The Nexlab LA Page
The Nexlab TX Page
The Nexlab AR Page
The Nexlab OK Page Main Text Page